| time (UTC) | temp F | wind direction | speed knots | gust knots | rain 1hr in | rain 24hr in | rain mn in | humidity % | barometer mb |
| 20260506122602 | 66 | 212 | 2.6 | 7.8 | 0.00 | 0.00 | 0.00 | 78 | 1008.7 |
| 20260506121603 | 65 | 229 | 3.5 | 12.2 | 0.00 | 0.00 | 0.00 | 78 | 1008.8 |
| 20260506120602 | 65 | 211 | 5.2 | 12.2 | 0.00 | 0.00 | 0.00 | 79 | 1008.9 |
| 20260506115603 | 65 | 231 | 5.2 | 11.3 | 0.00 | 0.00 | 0.00 | 78 | 1008.9 |
| 20260506114602 | 65 | 259 | 3.5 | 11.3 | 0.00 | 0.00 | 0.00 | 79 | 1009.2 |
| 20260506113624 | 65 | 237 | 2.6 | 8.7 | 0.00 | 0.00 | 0.00 | 79 | 1009.1 |
| 20260506112603 | 66 | 222 | 3.5 | 13.9 | 0.00 | 0.00 | 0.00 | 79 | 1008.9 |
| 20260506111603 | 65 | 230 | 0.0 | 7.8 | 0.00 | 0.00 | 0.00 | 80 | 1009.0 |
| 20260506110603 | 65 | 185 | 2.6 | 12.2 | 0.00 | 0.00 | 0.00 | 80 | 1009.0 |
| 20260506105603 | 65 | 246 | 4.3 | 7.8 | 0.00 | 0.00 | 0.00 | 80 | 1008.8 |
| 20260506104603 | 64 | 214 | 5.2 | 12.2 | 0.00 | 0.00 | 0.00 | 81 | 1008.9 |
| 20260506103602 | 64 | 232 | 3.5 | 13.0 | 0.00 | 0.00 | 0.00 | 81 | 1009.0 |
| 20260506102603 | 64 | 227 | 3.5 | 7.0 | 0.00 | 0.00 | 0.00 | 82 | 1008.9 |
| 20260506101602 | 64 | 255 | 0.9 | 7.0 | 0.00 | 0.00 | 0.00 | 82 | 1008.8 |
| 20260506100603 | 64 | 261 | 2.6 | 8.7 | 0.00 | 0.00 | 0.00 | 83 | 1008.8 |
| 20260506095602 | 63 | 220 | 2.6 | 7.0 | 0.00 | 0.00 | 0.00 | 84 | 1008.5 |
| 20260506094603 | 63 | 211 | 0.9 | 7.0 | 0.00 | 0.00 | 0.00 | 84 | 1008.7 |
| 20260506093603 | 62 | 232 | 0.0 | 11.3 | 0.00 | 0.00 | 0.00 | 84 | 1008.7 |
| 20260506092603 | 62 | 213 | 0.0 | 3.5 | 0.00 | 0.00 | 0.00 | 84 | 1008.7 |
| 20260506091602 | 62 | 213 | 0.0 | 5.2 | 0.00 | 0.00 | 0.00 | 84 | 1008.7 |
| 20260506090603 | 62 | 211 | 0.0 | 5.2 | 0.00 | 0.00 | 0.00 | 83 | 1008.7 |
| 20260506085603 | 62 | 213 | 1.7 | 6.1 | 0.00 | 0.00 | 0.00 | 83 | 1008.8 |
| 20260506084623 | 62 | 213 | 0.0 | 4.3 | 0.00 | 0.00 | 0.00 | 83 | 1008.9 |
| 20260506083603 | 62 | 214 | 1.7 | 5.2 | 0.00 | 0.00 | 0.00 | 82 | 1009.0 |
| 20260506082605 | 62 | 215 | 0.0 | 0.9 | 0.00 | 0.00 | 0.00 | 82 | 1008.9 |
| 20260506081605 | 62 | 214 | 0.9 | 4.3 | 0.00 | 0.00 | 0.00 | 82 | 1009.0 |
| 20260506080605 | 63 | 213 | 0.0 | 2.6 | 0.00 | 0.00 | 0.00 | 80 | 1009.0 |
| 20260506072604 | 65 | 217 | 2.6 | 6.1 | 0.00 | 0.00 | 0.00 | 76 | 1009.1 |
| 20260506071604 | 65 | 227 | 0.0 | 6.1 | 0.00 | 0.00 | 0.00 | 75 | 1009.0 |
| 20260506070604 | 65 | 208 | 0.0 | 5.2 | 0.00 | 0.00 | 0.00 | 74 | 1009.1 |
| 20260506061604 | 67 | 203 | 0.0 | 5.2 | 0.00 | 0.00 | 0.00 | 71 | 1009.2 |
| 20260506060604 | 67 | 199 | 0.9 | 6.1 | 0.00 | 0.00 | 0.00 | 70 | 1009.1 |
| 20260506050604 | 68 | 198 | 0.9 | 7.0 | 0.00 | 0.00 | 0.00 | 67 | 1009.8 |
| 20260506044604 | 68 | 228 | 0.0 | 9.6 | 0.00 | 0.00 | 0.00 | 66 | 1009.8 |
| 20260506043604 | 69 | 198 | 3.5 | 11.3 | 0.00 | 0.00 | 0.00 | 65 | 1009.7 |
| 20260506042604 | 69 | 237 | 3.5 | 13.0 | 0.00 | 0.00 | 0.00 | 65 | 1009.8 |
| 20260506041603 | 69 | 224 | 2.6 | 12.2 | 0.00 | 0.00 | 0.00 | 65 | 1009.7 |
| 20260506040646 | 69 | 225 | 1.7 | 8.7 | 0.00 | 0.00 | 0.00 | 64 | 1009.7 |
| 20260506035604 | 70 | 238 | 1.7 | 8.7 | 0.00 | 0.00 | 0.00 | 63 | 1009.6 |
| 20260506034605 | 70 | 235 | 1.7 | 9.6 | 0.00 | 0.00 | 0.00 | 62 | 1009.7 |
| 20260506033605 | 70 | 210 | 1.7 | 12.2 | 0.00 | 0.00 | 0.00 | 61 | 1009.7 |
| 20260506032604 | 71 | 224 | 0.9 | 7.0 | 0.00 | 0.00 | 0.00 | 60 | 1009.6 |
| 20260506030604 | 72 | 178 | 0.9 | 8.7 | 0.00 | 0.00 | 0.00 | 58 | 1009.5 |
| 20260506025604 | 72 | 214 | 3.5 | 13.9 | 0.00 | 0.00 | 0.00 | 57 | 1009.5 |
| 20260506024604 | 73 | 227 | 5.2 | 13.0 | 0.00 | 0.00 | 0.00 | 56 | 1009.4 |
| 20260506023604 | 73 | 220 | 4.3 | 16.5 | 0.00 | 0.00 | 0.00 | 54 | 1009.4 |
| 20260506022604 | 73 | 207 | 6.1 | 14.8 | 0.00 | 0.00 | 0.00 | 53 | 1009.4 |
| 20260506021603 | 74 | 233 | 4.3 | 13.9 | 0.00 | 0.00 | 0.00 | 51 | 1009.3 |
| 20260506020625 | 74 | 225 | 4.3 | 15.6 | 0.00 | 0.00 | 0.00 | 49 | 1009.3 |
| 20260506015625 | 74 | 225 | 3.5 | 12.2 | 0.00 | 0.00 | 0.00 | 49 | 1009.1 |
| 20260506014604 | 75 | 202 | 3.5 | 10.4 | 0.00 | 0.00 | 0.00 | 48 | 1009.1 |
| 20260506013604 | 75 | 194 | 1.7 | 13.0 | 0.00 | 0.00 | 0.00 | 48 | 1008.8 |
| 20260506012604 | 75 | 228 | 1.7 | 12.2 | 0.00 | 0.00 | 0.00 | 47 | 1008.8 |
| 20260506011604 | 75 | 208 | 4.3 | 9.6 | 0.00 | 0.00 | 0.00 | 47 | 1008.8 |
| 20260506010604 | 76 | 208 | 7.0 | 13.0 | 0.00 | 0.00 | 0.00 | 46 | 1008.7 |
| 20260506005604 | 76 | 219 | 0.9 | 13.0 | 0.00 | 0.00 | 0.00 | 45 | 1008.5 |
| 20260506004604 | 76 | 199 | 0.9 | 9.6 | 0.00 | 0.00 | 0.00 | 44 | 1008.5 |
| 20260506002604 | 77 | 218 | 3.5 | 10.4 | 0.00 | 0.00 | 0.00 | 41 | 1008.2 |
| 20260506001604 | 77 | 216 | 1.7 | 7.8 | 0.00 | 0.00 | 0.00 | 40 | 1008.0 |
| 20260506000625 | 77 | 240 | 0.9 | 13.0 | 0.00 | 0.00 | 0.00 | 40 | 1008.0 |
| 20260505235626 | 78 | 220 | 6.1 | 12.2 | 0.00 | 0.00 | 0.00 | 39 | 1007.8 |
| 20260505233604 | 78 | 199 | 0.9 | 7.0 | 0.00 | 0.00 | 0.00 | 38 | 1007.8 |
| 20260505232604 | 78 | 225 | 0.9 | 13.0 | 0.00 | 0.00 | 0.00 | 38 | 1007.8 |
| 20260505231604 | 79 | 206 | 0.9 | 12.2 | 0.00 | 0.00 | 0.00 | 37 | 1007.6 |
| 20260505230604 | 79 | 230 | 3.5 | 13.0 | 0.00 | 0.00 | 0.00 | 36 | 1007.3 |
| 20260505225604 | 79 | 217 | 4.3 | 12.2 | 0.00 | 0.00 | 0.00 | 36 | 1007.2 |
| 20260505224604 | 79 | 216 | 4.3 | 14.8 | 0.00 | 0.00 | 0.00 | 35 | 1007.3 |
| 20260505223626 | 80 | 219 | 6.1 | 14.8 | 0.00 | 0.00 | 0.00 | 34 | 1007.1 |
| 20260505222603 | 81 | 238 | 3.5 | 17.4 | 0.00 | 0.00 | 0.00 | 34 | 1007.1 |
| 20260505221604 | 81 | 256 | 5.2 | 15.6 | 0.00 | 0.00 | 0.00 | 33 | 1007.0 |
| 20260505220604 | 81 | 216 | 3.5 | 19.1 | 0.00 | 0.00 | 0.00 | 33 | 1007.0 |
| 20260505215604 | 82 | 228 | 7.0 | 17.4 | 0.00 | 0.00 | 0.00 | 34 | 1006.9 |
| 20260505214604 | 81 | 255 | 2.6 | 20.0 | 0.00 | 0.00 | 0.00 | 34 | 1006.9 |
| 20260505213604 | 81 | 202 | 7.0 | 25.2 | 0.00 | 0.00 | 0.00 | 34 | 1006.8 |
| 20260505212605 | 81 | 222 | 9.6 | 27.8 | 0.00 | 0.00 | 0.00 | 34 | 1006.5 |
| 20260505211603 | 82 | 216 | 11.3 | 20.0 | 0.00 | 0.00 | 0.00 | 35 | 1006.4 |
| 20260505210625 | 82 | 195 | 7.8 | 20.0 | 0.00 | 0.00 | 0.00 | 36 | 1006.5 |
| 20260505205604 | 82 | 240 | 3.5 | 13.9 | 0.00 | 0.00 | 0.00 | 35 | 1006.4 |
| 20260505204604 | 82 | 204 | 6.1 | 22.6 | 0.00 | 0.00 | 0.00 | 36 | 1006.5 |
| 20260505203604 | 82 | 222 | 6.1 | 19.1 | 0.00 | 0.00 | 0.00 | 35 | 1006.8 |
| 20260505202604 | 83 | 186 | 5.2 | 18.2 | 0.00 | 0.00 | 0.00 | 34 | 1006.8 |
| 20260505200604 | 83 | 207 | 4.3 | 22.6 | 0.00 | 0.00 | 0.00 | 35 | 1006.8 |
| 20260505195603 | 83 | 220 | 7.0 | 18.2 | 0.00 | 0.00 | 0.00 | 35 | 1006.7 |
| 20260505194604 | 82 | 205 | 7.8 | 20.9 | 0.00 | 0.00 | 0.00 | 35 | 1006.8 |
| 20260505193603 | 82 | 213 | 6.1 | 23.5 | 0.00 | 0.00 | 0.00 | 37 | 1006.8 |
| 20260505192604 | 83 | 221 | 8.7 | 21.7 | 0.00 | 0.00 | 0.00 | 36 | 1007.0 |
| 20260505191604 | 83 | 202 | 6.1 | 18.2 | 0.00 | 0.00 | 0.00 | 36 | 1007.0 |
| 20260505190604 | 84 | 206 | 7.0 | 15.6 | 0.00 | 0.00 | 0.00 | 36 | 1007.2 |
| 20260505185625 | 84 | 203 | 5.2 | 17.4 | 0.00 | 0.00 | 0.00 | 38 | 1007.4 |
| 20260505184603 | 83 | 262 | 4.3 | 17.4 | 0.00 | 0.00 | 0.00 | 38 | 1007.5 |
| 20260505183625 | 83 | 249 | 8.7 | 18.2 | 0.00 | 0.00 | 0.00 | 37 | 1008.0 |
| 20260505182604 | 83 | 228 | 7.0 | 13.9 | 0.00 | 0.00 | 0.00 | 40 | 1008.0 |
| 20260505181603 | 83 | 182 | 7.0 | 16.5 | 0.00 | 0.00 | 0.00 | 42 | 1007.9 |
| 20260505180604 | 82 | 242 | 9.6 | 18.2 | 0.00 | 0.00 | 0.00 | 41 | 1008.0 |
| 20260505175604 | 82 | 203 | 10.4 | 19.1 | 0.00 | 0.00 | 0.00 | 42 | 1008.1 |
| 20260505174604 | 82 | 213 | 4.3 | 17.4 | 0.00 | 0.00 | 0.00 | 44 | 1008.1 |
| 20260505173603 | 82 | 212 | 2.6 | 11.3 | 0.00 | 0.00 | 0.00 | 45 | 1008.1 |
| 20260505172604 | 81 | 212 | 7.0 | 13.9 | 0.00 | 0.00 | 0.00 | 44 | 1008.2 |
| 20260505171646 | 81 | 254 | 5.2 | 12.2 | 0.00 | 0.00 | 0.00 | 44 | 1008.4 |
| 20260505170625 | 80 | 212 | 6.1 | 15.6 | 0.00 | 0.00 | 0.00 | 47 | 1008.4 |
| 20260505165604 | 80 | 210 | 4.3 | 13.0 | 0.00 | 0.00 | 0.00 | 46 | 1008.6 |
| 20260505163604 | 80 | 179 | 2.6 | 14.8 | 0.00 | 0.00 | 0.00 | 49 | 1008.9 |
| 20260505162604 | 79 | 209 | 8.7 | 13.9 | 0.00 | 0.00 | 0.00 | 48 | 1009.0 |
| 20260505161605 | 78 | 255 | 5.2 | 13.0 | 0.00 | 0.00 | 0.00 | 52 | 1009.2 |
| 20260505160603 | 78 | 176 | 1.7 | 12.2 | 0.00 | 0.00 | 0.00 | 51 | 1009.3 |
| 20260505152604 | 76 | 168 | 5.2 | 10.4 | 0.00 | 0.00 | 0.00 | 54 | 1009.8 |
| 20260505151603 | 76 | 178 | 4.3 | 10.4 | 0.00 | 0.00 | 0.00 | 54 | 1009.9 |
| 20260505150604 | 76 | 191 | 0.9 | 8.7 | 0.00 | 0.00 | 0.00 | 54 | 1009.9 |
| 20260505140604 | 71 | 242 | 3.5 | 8.7 | 0.00 | 0.00 | 0.00 | 61 | 1010.3 |
| 20260505124603 | 62 | 225 | 1.7 | 6.1 | 0.00 | 0.00 | 0.00 | 80 | 1010.1 |
| 20260505123604 | 59 | 236 | 0.0 | 0.0 | 0.00 | 0.00 | 0.00 | 87 | 1010.2 |